This is the latest recevied weather packets stored in our database for station/object WAYLND-WX. If no packets are shown the sender has not sent any weather packets the latest 10 day(s).
| Time | Temp. | Humidity | Pressure | Rain* | Wind** | Luminosity | Snow |
|---|---|---|---|---|---|---|---|
| 1777690870 | 1.67° C | 69% | 989.2 hPa | 0 mm | - | - | - |
| 1777689941 | 1.67° C | 66% | 988.7 hPa | 0 mm | - | - | - |
| 1777689059 | 1.67° C | 71% | 989.6 hPa | 0 mm | - | - | - |
| 1777688140 | 1.67° C | 71% | 989.6 hPa | 0 mm | - | - | - |
| 1777687266 | 1.67° C | 71% | 989.6 hPa | 0 mm | - | - | - |
| 1777686340 | 2.22° C | 63% | 989.8 hPa | 0 mm | - | - | - |
| 1777685457 | 2.22° C | 63% | 989.8 hPa | 0 mm | - | - | - |
| 1777684540 | 2.22° C | 63% | 989.8 hPa | 0 mm | - | - | - |
| 1777683663 | 2.78° C | 63% | 989.8 hPa | 0 mm | - | - | - |
| 1777682740 | 2.78° C | 53% | 990.3 hPa | 0 mm | - | - | - |
| 1777681858 | 3.33° C | 56% | 990.6 hPa | 0 mm | - | - | - |
| 1777680940 | 3.89° C | 56% | 990.7 hPa | 0 mm | - | - | - |
| 1777680077 | 5° C | 56% | 990.7 hPa | 0 mm | - | - | - |
| 1777679142 | 5° C | 53% | 989 hPa | 0 mm | - | - | - |
| 1777678255 | 5° C | 54% | 990.1 hPa | 0 mm | - | - | - |
| 1777677341 | 5.56° C | 54% | 990.1 hPa | 0 mm | - | - | - |
| 1777676463 | 5.56° C | 54% | 990.1 hPa | 0 mm | - | - | - |
| 1777675541 | 6.11° C | 58% | 988.8 hPa | 0 mm | - | - | - |
| 1777674660 | 6.11° C | 57% | 989.8 hPa | 0 mm | - | - | - |
| 1777673741 | 6.67° C | 57% | 989.8 hPa | 0 mm | - | - | - |
| 1777672870 | 6.67° C | 57% | 989.8 hPa | 0 mm | - | - | - |
| 1777671941 | 6.67° C | 58% | 989.2 hPa | 0 mm | - | - | - |
| 1777671055 | 6.67° C | 58% | 989.6 hPa | 0 mm | - | - | - |
| 1777670141 | 6.67° C | 58% | 989.6 hPa | 0 mm | - | - | - |
| 1777669269 | 6.67° C | 58% | 989.6 hPa | 0 mm | - | - | - |
* Rain latest hour (hover to see other rain measurements)
** Current wind speed in m/s (hover to see current wind gust speed)